Weather in Adler

Russia / Krasnodar Krai     43°26′36″N   39°54′37″E
temp.,
°C
wind,
m/s
gust,
m/s
humid.,
%
clouds,
%
prec.,
mm/h
press.,
hPa
HPBL,
m
28 september, tue
tue2800:00+13ene227683 0.1 101763
03:00+13e217496 0.1 101660
06:00+13e117387 0.1 101759
09:00+16sse017439 0.5 1017311
12:00+16s237526 0.7 1017604
15:00+17ssw238035 2.1 1018680
18:00+13ene119113 1.2 101879
21:00+12e22915 1.4 101957
29 september, wed
wed2900:00+11ene22889 0.1 101962
03:00+12ene2286100 0.1 101967
06:00+11ene2286100 0.0 101969
09:00+15sse1278100 0.1 1019253
12:00+16ssw237983 1.6 1019541
15:00+16s127959 2.7 1019434
18:00+14sse118484 0.8 1018138
21:00+13e118891 1.3 101948
30 september, thu
thu3000:00+12ene229171 1.7 101936
03:00+12ene229126 4.3 101860
06:00+10ene22873 0.6 101853
09:00+15nne11733 0.6 1019252
12:00+17ssw226717 0.7 1019851
15:00+16ssw117419 1.7 1019762
18:00+13ene118712 1.1 102070
21:00+12ene22890 1.3 102254
1 october, fri
fri100:00+10ene22871 0.1 102262
03:00+10ene22851 0.1 102263
06:00+10ene22840 0.0 102362
09:00+15s11700 0.0 1023315
12:00+17sw22659 0.0 1023850
15:00+17ssw217044 0.2 1023942
18:00+13e118711 0.1 102395
21:00+12ene22882 0.1 102350
2 october, sat
sat200:00+11ene22831 0.0 102451
03:00+11ene22790 0.0 102449
06:00+11ene22760 0.0 102349
09:00+16nnw12630 0.0 1023281
12:00+18w33601 0.0 1022855
15:00+18wnw22672 0.0 1021597
18:00+14ne11840 0.0 102058
21:00+13ene228572 0.0 102150